Date String (YYYY-MM-DD hh:mm:ss) UTC,Instrument flags,Ambient pressure (hPa),Sample flow (lpm),Bypass flow (lpm),Sample temperature (°C),Ambient temperature (°C),ASC tube jacket temperature (°C),LED temperature (°C),Box temperature (°C),Sample RH (%),Span deviation,Mass concentration (μg/m³),Mass concentration (μg/m³),Mass concentration (μg/m³)
DateTimeUTC,F1_M11,P_M11,Q1_M11,Q2_M11,T1_M11,T2_M11,T3_M11,T4_M11,T5_M11,U1_M11,ZSPAN_M11,X2_M11,X0_M11,X1_M11
2021-12-04 00:00:00,,0828.8,5.00,0.00,30.2,29.3,00.0,39.2,31.9,11.9,0000.0,0005.04,0025.40,0002.34
2021-12-04 00:01:00,,0828.8,5.00,0.00,30.2,29.2,00.0,39.2,31.9,11.9,0000.0,0005.01,0024.43,0002.32
2021-12-04 00:02:00,,0828.5,4.99,0.00,30.1,29.3,00.0,39.2,31.9,11.9,0000.0,0005.03,0024.52,0002.33
2021-12-04 00:03:00,,0829.1,5.00,0.00,30.1,29.2,00.0,39.2,31.9,11.9,0000.0,0005.03,0025.57,0002.32
2021-12-04 00:04:00,,0829.1,5.01,0.00,30.1,29.2,00.0,39.2,31.8,11.9,0000.0,0005.07,0025.27,0002.33
2021-12-04 00:05:00,,0829.1,4.98,0.00,30.1,29.2,00.0,39.2,31.8,11.9,0000.0,0005.12,0026.51,0002.34
2021-12-04 00:06:00,,0829.0,5.01,0.00,30.1,29.2,00.0,39.2,31.8,11.9,0000.0,0005.06,0028.45,0002.33
2021-12-04 00:07:00,,0828.7,5.00,0.00,30.1,29.2,00.0,39.1,31.8,11.9,0000.0,0004.97,0028.96,0002.32
2021-12-04 00:08:00,,0828.7,5.00,0.00,30.1,29.2,00.0,39.1,31.8,11.9,0000.0,0005.03,0026.82,0002.34
2021-12-04 00:09:00,,0828.7,4.99,0.00,30.1,29.2,00.0,39.1,31.8,11.9,0000.0,0004.98,0024.56,0002.36
2021-12-04 00:10:00,,0828.7,5.01,0.00,30.1,29.2,00.0,39.1,31.7,11.9,0000.0,0004.96,0025.35,0002.37
2021-12-04 00:11:00,,0828.8,5.00,0.00,30.1,29.2,00.0,39.1,31.8,11.9,0000.0,0004.89,0025.95,0002.37
2021-12-04 00:12:00,,0829.0,5.00,0.00,30.1,29.2,00.0,39.1,31.7,11.9,0000.0,0004.88,0025.58,0002.36
2021-12-04 00:13:00,,0829.3,4.99,0.00,30.1,29.2,00.0,39.1,31.7,11.9,0000.0,0004.88,0025.80,0002.35
2021-12-04 00:14:00,,0829.3,5.01,0.00,30.1,29.2,00.0,39.1,31.7,11.9,0000.0,0004.88,0025.01,0002.35
2021-12-04 00:15:00,,0829.1,4.99,0.00,30.0,29.1,00.0,39.1,31.7,12.0,0000.0,0004.83,0025.94,0002.34
2021-12-04 00:16:00,,0828.9,5.00,0.00,30.0,29.2,00.0,39.1,31.8,12.0,0000.0,0004.76,0024.95,0002.35
2021-12-04 00:17:00,,0828.8,5.00,0.00,30.0,29.2,00.0,39.1,31.7,12.0,0000.0,0004.70,0023.74,0002.34
2021-12-04 00:18:00,,0828.8,5.02,0.00,30.0,29.2,00.0,39.1,31.7,12.0,0000.0,0004.68,0022.99,0002.35
2021-12-04 00:19:00,,0828.9,5.00,0.00,30.0,29.1,00.0,39.1,31.7,12.0,0000.0,0004.67,0023.24,0002.36
2021-12-04 00:20:00,,0828.9,5.01,0.00,30.0,29.1,00.0,39.1,31.7,12.0,0000.0,0004.63,0024.68,0002.36
2021-12-04 00:21:00,,0828.9,5.01,0.00,30.0,29.1,00.0,39.1,31.7,12.0,0000.0,0004.66,0024.23,0002.39
2021-12-04 00:22:00,,0828.9,5.01,0.00,30.0,29.1,00.0,39.1,31.7,12.0,0000.0,0004.72,0023.80,0002.41
2021-12-04 00:23:00,,0828.9,4.99,0.00,30.0,29.1,00.0,39.1,31.7,12.0,0000.0,0004.81,0024.55,0002.44
2021-12-04 00:24:00,,0828.9,5.01,0.00,30.0,29.1,00.0,39.0,31.7,12.0,0000.0,0004.80,0025.32,0002.48
2021-12-04 00:25:00,,0828.9,4.99,0.00,30.0,29.1,00.0,39.0,31.7,12.0,0000.0,0004.77,0025.85,0002.50
2021-12-04 00:26:00,,0829.0,5.01,0.00,30.0,29.1,00.0,39.0,31.7,11.9,0000.0,0004.78,0025.53,0002.52
2021-12-04 00:27:00,,0829.0,5.00,0.00,30.0,29.1,00.0,39.0,31.7,12.0,0000.0,0004.73,0026.62,0002.53
2021-12-04 00:28:00,,0829.1,5.00,0.00,30.0,29.1,00.0,39.0,31.7,12.0,0000.0,0004.76,0027.62,0002.57
2021-12-04 00:29:00,,0829.1,5.01,0.00,29.9,29.1,00.0,39.0,31.7,12.0,0000.0,0004.79,0027.54,0002.60
2021-12-04 00:30:00,,0829.0,4.99,0.00,30.0,29.1,00.0,39.0,31.6,12.0,0000.0,0004.75,0026.60,0002.62
2021-12-04 00:31:00,,0829.1,5.01,0.00,29.9,29.0,00.0,39.0,31.6,12.0,0000.0,0004.79,0025.13,0002.65
2021-12-04 00:32:00,,0829.1,4.99,0.00,29.9,29.0,00.0,39.0,31.6,12.0,0000.0,0004.79,0024.49,0002.66
2021-12-04 00:33:00,,0829.1,5.01,0.00,29.9,29.0,00.0,39.0,31.6,12.0,0000.0,0004.77,0024.14,0002.68
2021-12-04 00:34:00,,0829.1,5.00,0.00,29.9,29.0,00.0,39.0,31.6,12.0,0000.0,0004.74,0024.18,0002.71
2021-12-04 00:35:00,,0829.2,5.00,0.00,29.9,29.0,00.0,39.0,31.6,12.0,0000.0,0004.72,0024.12,0002.71
2021-12-04 00:36:00,,0829.2,4.99,0.00,29.9,29.0,00.0,39.0,31.6,12.0,0000.0,0004.74,0024.13,0002.72
2021-12-04 00:37:00,,0829.3,5.00,0.00,29.9,29.0,00.0,38.9,31.5,12.0,0000.0,0004.77,0023.85,0002.73
2021-12-04 00:38:00,,0829.2,5.00,0.00,29.9,29.0,00.0,38.9,31.5,12.0,0000.0,0004.82,0023.67,0002.76
2021-12-04 00:39:00,,0829.3,5.00,0.00,29.9,29.0,00.0,38.9,31.5,12.0,0000.0,0004.78,0022.41,0002.75
2021-12-04 00:40:00,,0829.3,5.01,0.00,29.8,28.9,00.0,38.9,31.5,12.0,0000.0,0004.73,0022.28,0002.73
2021-12-04 00:41:00,,0829.3,5.00,0.00,29.8,28.9,00.0,38.9,31.4,12.0,0000.0,0004.75,0022.82,0002.72
2021-12-04 00:42:00,,0829.3,4.98,0.00,29.8,28.9,00.0,38.9,31.4,12.0,0000.0,0004.74,0024.25,0002.71
2021-12-04 00:43:00,,0829.2,5.02,0.00,29.8,28.9,00.0,38.9,31.4,12.0,0000.0,0004.72,0026.06,0002.69
2021-12-04 00:44:00,,0829.2,4.99,0.00,29.8,28.9,00.0,38.9,31.4,12.0,0000.0,0004.71,0026.67,0002.69
2021-12-04 00:45:00,,0829.2,4.98,0.00,29.8,28.9,00.0,38.9,31.4,12.0,0000.0,0004.70,0025.93,0002.68
2021-12-04 00:46:00,,0829.2,5.02,0.00,29.8,28.8,00.0,38.9,31.4,12.0,0000.0,0004.76,0025.54,0002.66
2021-12-04 00:47:00,,0829.2,4.99,0.00,29.7,28.8,00.0,38.9,31.4,12.0,0000.0,0004.77,0025.67,0002.65
2021-12-04 00:48:00,,0829.2,5.01,0.00,29.7,28.8,00.0,38.8,31.3,12.0,0000.0,0004.72,0024.94,0002.63
2021-12-04 00:49:00,,0829.3,4.99,0.00,29.7,28.8,00.0,38.8,31.3,12.0,0000.0,0004.64,0023.85,0002.59
2021-12-04 00:50:00,,0829.2,4.99,0.00,29.7,28.8,00.0,38.8,31.3,12.0,0000.0,0004.64,0024.47,0002.56
2021-12-04 00:51:00,,0829.2,5.01,0.00,29.7,28.8,00.0,38.8,31.3,12.0,0000.0,0004.71,0023.98,0002.55
2021-12-04 00:52:00,,0829.2,5.00,0.00,29.7,28.8,00.0,38.8,31.3,12.1,0000.0,0004.70,0023.14,0002.54
2021-12-04 00:53:00,,0829.3,5.01,0.00,29.7,28.8,00.0,38.8,31.3,12.1,0000.0,0004.69,0022.90,0002.52
2021-12-04 00:54:00,,0829.3,5.00,0.00,29.6,28.8,00.0,38.8,31.3,12.0,0000.0,0004.67,0022.26,0002.50
2021-12-04 00:55:00,,0829.5,5.00,0.00,29.6,28.8,00.0,38.8,31.3,12.0,0000.0,0004.61,0021.77,0002.48
2021-12-04 00:56:00,,0829.4,5.00,0.00,29.6,28.7,00.0,38.8,31.3,12.0,0000.0,0004.62,0022.13,0002.44
2021-12-04 00:57:00,,0829.3,5.01,0.00,29.6,28.7,00.0,38.7,31.3,12.0,0000.0,0004.62,0022.47,0002.42
2021-12-04 00:58:00,,0829.2,5.00,0.00,29.6,28.7,00.0,38.7,31.3,12.0,0000.0,0004.59,0021.38,0002.39
2021-12-04 00:59:00,,0829.3,4.99,0.00,29.6,28.7,00.0,38.7,31.3,12.0,0000.0,0004.61,0020.97,0002.38
